Regional Weather Roundup
Issued by NWS

Home | Current Version | Previous Version | Text Only | Print | Product List | Glossary On
Versions: 1 2 3 4 5 6 7 8 9 10 11 12 13 14 15 16 17 18 19 20 21 22 23 24 25 26 27 28 29 30 31 32 33 34 35 36 37 38 39 40 41 42 43 44 45 46 47 48 49 50
000
ASUS43 KDMX 300707
RWRIA

WEATHER ROUNDUP FOR IOWA
NATIONAL WEATHER SERVICE DES MOINES IA
200 AM CDT TUE JUN 30 2015

NOTE: "FAIR" INDICATES FEW OR NO CLOUDS BELOW 12,000 FEET WITH NO
SIGNIFICANT WEATHER AND/OR OBSTRUCTIONS TO VISIBILITY.

* - THESE STATIONS ARE NOT NWS STATIONS...THUS NOT UNDER NWS
QUALITY CONTROL.  THEY ALSO DO NOT REPORT WEATHER SUCH
AS PRECIPITATION OR FOG.

IAZ001>003-012>014-020>022-031>034-043>046-300800-
   NORTHWEST IOWA

CITY           SKY/WX    TMP DP  RH WIND       PRES   REMARKS
CARROLL *      CLOUDY    66  63  88 W8        29.89S
CHEROKEE *     CLOUDY    64  63  94 CALM      29.91S
DENISON *      CLOUDY    63  61  94 CALM      29.89F
LE MARS *        N/A     63  63 100 CALM      29.92S
ORANGE CITY *  CLEAR     63  61  94 CALM      29.92S
SHELDON *      CLOUDY    63  63 100 N5        29.91S FOG
SIOUX CITY     CLEAR     65  60  84 N3        29.91S
SPENCER        CLOUDY    61  59  93 NW6       29.90F FOG
STORM LAKE *   CLEAR     66  63  88 NW9       29.92S
$$

IAZ055>058-069>071-079>083-090>094-300800-
   SOUTHWEST IOWA

CITY           SKY/WX    TMP DP  RH WIND       PRES   REMARKS
ATLANTIC *     CLOUDY    64  63  94 S5        29.91S
AUDUBON *      CLEAR     64  61  88 CALM      29.92S
CLARINDA *     CLEAR     64  64 100 CALM      29.94R
COUNCIL BLFS * CLOUDY    70  64  83 SW5       29.93S
CRESTON *      CLEAR     66  61  82 W6        29.91F
HARLAN  *      CLEAR     63  63 100 CALM      29.95S
LAMONI         CLEAR     69  62  78 W5        29.91R
RED OAK *      MOCLDY    66  64  94 CALM      29.92F
SHENANDOAH *   PTCLDY    64  63  94 SW3       29.93S
$$

IAZ047>049-059>061-072>074-084-300800-
   CENTRAL IOWA

CITY           SKY/WX    TMP DP  RH WIND       PRES   REMARKS
AMES           CLEAR     68  63  84 W8        29.85F
ANKENY *       CLEAR     68  64  88 W8        29.86S
CHARITON *     CLOUDY    68  63  83 W5        29.88F
DES MOINES     CLOUDY    69  62  78 W6        29.86S
GRINNELL*      CLEAR     66  63  88 CALM      29.86F
KNOXVILLE *    CLEAR     66  63  88 SW6       29.85F
MARSHALLTOWN   CLEAR     64  62  93 SW7       29.84F
PELLA *        CLEAR     70  66  88 W6        29.87S
PERRY *          N/A     66  64  94 W7        29.87F
$$

IAZ004>006-015-016-023>025-035-036-300800-
   NORTH CENTRAL IOWA

CITY           SKY/WX    TMP DP  RH WIND       PRES   REMARKS
ALGONA *       CLOUDY    66  63  88 NW7       29.88S
CLARION *      CLEAR     64  63  94 NW7       29.86F
ESTHERVILLE    CLEAR     64  61  90 NW7       29.89S
FORT DODGE *   CLEAR     66  61  82 CALM      29.88S
MASON CITY     CLEAR     62  58  86 W5        29.86F
FOREST CITY *  CLEAR     64  63  94 NW7       29.86S
IOWA FALLS *     N/A     64  61  88 W3        29.86S
$$

IAZ007>011-017>019-026>030-037>042-050>054-066-300800-
   NORTHEAST IOWA

CITY           SKY/WX    TMP DP  RH WIND       PRES   REMARKS
CEDAR RAPIDS   CLEAR     61  61 100 SW3       29.83F
CHARLES CITY * CLEAR     61  61 100 W3        29.85S
CLINTON *      MOCLDY    63  59  88 NW5       29.84S
DECORAH *        N/A    N/A N/A N/A MISG        N/A
DUBUQUE        MOCLDY    61  59  93 CALM      29.83R
MONTICELLO *   CLEAR     61 N/A N/A CALM      29.83S
OELWEIN *        N/A     61  61 100 W5        29.84S
WATERLOO       CLEAR     63  60  90 W5        29.82F
$$

IAZ064-065-067-068-078-300800-
   EAST CENTRAL IOWA

CITY           SKY/WX    TMP DP  RH WIND       PRES   REMARKS
DAVENPORT      MOCLDY    64  61  90 W6        29.82R
IOWA CITY      CLEAR     63  61  93 W3        29.84S
MT. PLEASANT * CLEAR     70  64  83 NW5       29.86S
MUSCATINE *    CLEAR     66  63  88 W5        29.83R
QUAD CITIES    CLOUDY    66  64  93 W3        29.81S
$$

IAZ062-063-075>077-085>089-095>099-300800-
   SOUTHEAST IOWA

CITY           SKY/WX    TMP DP  RH WIND       PRES   REMARKS
BURLINGTON     PTCLDY    67  66  97 NW6       29.84S
FAIRFIELD *    CLEAR     66  64  94 W6        29.86S
FORT MADISON * CLEAR     66  66 100 CALM      29.86R
KEOKUK *       CLEAR     68  66  94 W7        29.84S
OSKALOOSA *      N/A     66  64  94 CALM      29.87R
CENTERVILLE *  CLEAR     66  63  88 W7        29.89F
OTTUMWA        CLEAR     68  65  90 N7        29.86R
WASHINGTON *   CLEAR     64  63  94 W3        29.86F
$$

ABBREVIATIONS USED IN REMARKS
   TC - TEMPERATURES IN CELSIUS
  WCI - WIND CHILL INDEX
   HX - HEAT INDEX
  VSB - VISIBILITY
$$




USA.gov is the U.S. government's official web portal to all federal, state and local government web resources and services.